x

8419317 - Wells, Me (welm1) Weather Station

7:48pm - Wed 22nd Nov 2017 All times are EST. -5 hours from GMT.

  • Wind
    6mph, 10mph gusts
  • Sea Temp 46°f
  • Air Temp 41°f
  • Sea Pressure 1009.9mb
  • 8419317 - Wells, Me
  • 8419317 - Wells, Me

More Historic Weather Station data

Upgrade to MSW Pro to gain access to the past 30 days of data for over 8000 Wavebouys and Weather Stations around the globe.

Join

Comparision Forecast

View Surf forecast
   
Wed 11/22 7:48pm 6 10 mph 1009.9mb 46f 41f
7:42pm 8 10 mph 1009.8mb 47f 41f
7:36pm 5 11 mph 1009.8mb 47f 41f
7:30pm 7 11 mph 1009.8mb 47f 41f
7:24pm 7 10 mph 1009.8mb 47f 41f
7:18pm 9 14 mph 1009.9mb 47f 41f
7:12pm 10 14 mph 1009.8mb 47f 41f
7:06pm 11 15 mph 1009.7mb 47f 41f
7:00pm 10 14 mph 1009.6mb 47f 41f
6:54pm 11 14 mph 1009.4mb 47f 41f
6:48pm 10 14 mph 1009.6mb 47f 41f
6:42pm 11 16 mph 1009.5mb 47f 41f
6:36pm 8 14 mph 1009.6mb 47f 41f
6:30pm 8 13 mph 1009.7mb 47f 41f
6:24pm 10 14 mph 1009.7mb 47f 42f
6:18pm 8 10 mph 1009.6mb 47f 42f
6:12pm 6 11 mph 1009.6mb 47f 42f
6:06pm 8 11 mph 1009.6mb 47f 42f
6:00pm 8 13 mph 1009.3mb 47f 42f
5:48pm 10 14 mph 1009.1mb 47f 42f
5:42pm 10 14 mph 1009.2mb 47f 42f
5:36pm 10 14 mph 1009.2mb 47f 42f
5:30pm 9 13 mph 1009.2mb 47f 42f
5:24pm 9 16 mph 1009.2mb 48f 42f
5:18pm 9 13 mph 1009.1mb 48f 42f
5:12pm 8 13 mph 1009.1mb 48f 42f
5:06pm 8 11 mph 1009.1mb 48f 42f
5:00pm 9 11 mph 1009.1mb 48f 42f
4:54pm 9 15 mph 1009mb 47f 43f
4:48pm 9 11 mph 1008.9mb 48f 43f
4:42pm 9 13 mph 1008.9mb 48f 43f
4:36pm  -  mph 1008.8mb - -
4:30pm 11 15 mph 1008.9mb 48f 43f
4:24pm 9 13 mph 1009.1mb 48f 43f
4:18pm 7 13 mph 1009mb 48f 43f
4:12pm 9 13 mph 1009mb 48f 43f
4:06pm 10 14 mph 1008.9mb 48f 43f
4:00pm 10 13 mph 1008.9mb 48f 43f
3:54pm 8 14 mph 1008.9mb 48f 43f
3:48pm 7 13 mph 1008.8mb 48f 43f
3:42pm 8 14 mph 1009mb 48f 43f
3:36pm 9 13 mph 1008.8mb 48f 43f
3:30pm 9 11 mph 1008.6mb 48f 44f
3:24pm 9 10 mph 1008.7mb 48f 44f
3:18pm 10 13 mph 1008.6mb 48f 44f
3:12pm 9 13 mph 1008.7mb 48f 43f
3:06pm 8 11 mph 1008.7mb 48f 43f
3:00pm 7 13 mph 1008.8mb 48f 43f
2:54pm 9 14 mph 1008.9mb 48f 43f
2:48pm 10 15 mph 1008.9mb 48f 43f
2:42pm 7 13 mph 1008.9mb 48f 44f
2:36pm 9 13 mph 1008.7mb 48f 44f
2:30pm 10 13 mph 1008.5mb 48f 44f
2:24pm 10 14 mph 1008.5mb 48f 44f
2:18pm 11 14 mph 1008.5mb 48f 44f
2:12pm 10 14 mph 1008.6mb 48f 44f
2:06pm 11 14 mph 1008.6mb 48f 44f
2:00pm 8 13 mph 1008.9mb 48f 44f
1:54pm 10 13 mph 1008.9mb 48f 44f
1:48pm 10 14 mph 1008.9mb 48f 44f
1:42pm 10 13 mph 1009mb 48f 44f
1:36pm 10 14 mph 1009mb 48f 44f
1:30pm 11 15 mph 1008.9mb 48f 44f
1:24pm 13 17 mph 1009mb 48f 44f
1:18pm 11 14 mph 1009.2mb 48f 45f
1:12pm 9 15 mph 1009.4mb 48f 45f
1:06pm 5 9 mph 1009.6mb 48f 49f
1:00pm 6 7 mph 1009.7mb 48f 50f
12:54pm 7 9 mph 1009.8mb 48f 50f
12:48pm 8 10 mph 1009.9mb 48f 50f
12:42pm 9 10 mph 1010mb 48f 50f
12:36pm 9 11 mph 1010mb 48f 50f
12:30pm 10 13 mph 1010.3mb 48f 50f
12:24pm 10 13 mph 1010.4mb 48f 50f
12:18pm 10 13 mph 1010.4mb 48f 50f
12:12pm 11 14 mph 1010.4mb 48f 51f
12:06pm 11 14 mph 1010.5mb 48f 51f
12:00pm 11 14 mph 1010.6mb 48f 51f
11:54am 11 16 mph 1010.7mb 48f 51f
11:48am 11 14 mph 1010.8mb 48f 51f
11:42am 9 13 mph 1010.9mb 48f 50f
11:36am 9 10 mph 1011.1mb 48f 50f
11:30am 7 9 mph 1011.2mb 48f 50f
11:24am 6 6 mph 1011.4mb 48f 50f
11:18am 2 3 mph 1011.4mb 48f 48f
11:12am 2 6 mph 1011.5mb 48f 49f
11:06am 2 5 mph 1011.6mb 48f 49f
11:00am  -  2 mph 1011.7mb 48f 47f
10:54am  -  2 mph 1011.7mb 48f 46f
10:48am 2 2 mph 1011.7mb 48f 45f
10:42am 2 3 mph 1011.9mb 48f 45f
10:36am 1 2 mph 1012.2mb 48f 45f
10:30am 1 2 mph 1012.3mb 48f 44f
10:24am 2 7 mph 1012.3mb 48f 44f
10:18am 2 3 mph 1012.4mb 48f 45f
10:12am 3 8 mph 1012.5mb 48f 44f
10:06am 5 6 mph 1012.5mb 48f 44f
10:00am 1 5 mph 1012.5mb 48f 45f
9:54am 1 6 mph 1012.5mb 47f 44f
9:48am 5 8 mph 1012.5mb 47f 44f
9:42am 8 9 mph 1012.6mb 47f 43f
9:36am 3 5 mph 1013mb 46f 43f
9:30am 1 1 mph 1013.3mb 45f 42f
9:24am  -  3 mph 1013.6mb 45f 42f
9:18am 2 2 mph 1013.8mb 45f 42f
9:12am 2 2 mph 1013.9mb 45f 42f
9:06am 1 3 mph 1014.1mb 45f 42f
9:00am 2 3 mph 1014.1mb 45f 42f
8:54am 1 2 mph 1014mb 45f 42f
8:48am  -  2 mph 1014.1mb 45f 42f
8:42am 1 2 mph 1014.1mb 45f 42f
8:36am  -  3 mph 1014.2mb 45f 42f
8:30am 3 5 mph 1014.1mb 46f 42f
8:24am 6 7 mph 1014.2mb 46f 40f
8:18am 2 6 mph 1014mb 46f 42f
8:12am 5 6 mph 1013.7mb 46f 42f
8:06am 1 1 mph 1014.1mb 46f 41f
8:00am 1 2 mph 1014.3mb 46f 40f
7:54am  -  2 mph 1014.5mb 46f 40f
7:48am  -  3 mph 1014.6mb 46f 40f
7:42am 3 5 mph 1014.8mb 46f 39f
7:36am 3 5 mph 1014.6mb 46f 38f
7:30am 3 3 mph 1014.4mb 46f 38f
7:24am 3 3 mph 1014.4mb 46f 38f
7:18am 2 3 mph 1014.4mb 46f 38f
7:12am 2 2 mph 1014.5mb 47f 39f
7:06am 2 2 mph 1014.4mb 47f 38f
7:00am  -  2 mph 1014.5mb 47f 38f
6:54am 1 2 mph 1014.4mb 47f 38f
6:48am 2 3 mph 1014.3mb 47f 38f
6:42am  -  1 mph 1014.4mb 47f 38f
6:36am 2 3 mph 1014.5mb 47f 38f
6:30am 2 2 mph 1014.6mb 47f 38f
6:24am  -  1 mph 1014.7mb 47f 38f
6:18am 1 2 mph 1014.8mb 47f 38f
6:12am 2 5 mph 1014.8mb 47f 38f
6:06am 5 5 mph 1015mb 47f 37f
6:00am 3 5 mph 1015mb 47f 37f
5:54am 2 3 mph 1015mb 47f 37f
5:48am 3 3 mph 1015.2mb 47f 38f
5:42am  -  3 mph 1015.2mb 47f 39f
5:36am 3 5 mph 1015.4mb 47f 39f
5:30am 2 3 mph 1015.3mb 47f 39f
5:24am 2 2 mph 1015.2mb 47f 40f
5:18am 1 2 mph 1015.3mb 47f 40f
5:12am 1 2 mph 1015.2mb 47f 40f
5:06am 1 3 mph 1015.2mb 47f 41f
5:00am 3 5 mph 1015.1mb 47f 40f
4:54am 3 5 mph 1015.1mb 47f 39f
4:48am 2 3 mph 1015.3mb 47f 37f
4:42am 2 3 mph 1015.4mb 48f 37f
4:36am 2 2 mph 1015.3mb 48f 37f
4:30am  -  2 mph 1015.4mb 48f 38f
4:24am 1 3 mph 1015.5mb 48f 37f
4:18am 3 3 mph 1015.5mb 48f 37f
4:12am 2 3 mph 1015.4mb 48f 37f
4:06am 2 3 mph 1015.4mb 48f 37f
4:00am 2 3 mph 1015.5mb 48f 37f
3:54am 3 3 mph 1015.4mb 48f 37f
3:48am 3 5 mph 1015.5mb 48f 36f
3:42am 3 3 mph 1015.5mb 48f 36f
3:36am 3 3 mph 1015.4mb 48f 36f
3:30am 1 1 mph 1015.5mb 48f 38f
3:24am  -  1 mph 1015.5mb 48f 38f
3:18am  -  1 mph 1015.5mb 48f 38f
3:12am  -  1 mph 1015.5mb 48f 37f
3:06am  -  1 mph 1015.4mb 48f 37f
3:00am 1 1 mph 1015.4mb 48f 37f
12:00am 7 9 mph 1015.9mb 48f 44f
Tue 11/21 11:30pm 6 9 mph 1015.7mb 48f 45f
11:24pm 7 9 mph 1015.7mb 48f 45f
11:18pm 7 8 mph 1015.7mb 48f 45f
11:12pm 7 8 mph 1015.7mb 48f 44f
11:06pm 6 7 mph 1015.6mb 48f 44f
11:00pm 6 6 mph 1015.6mb 48f 44f
10:54pm 6 6 mph 1015.6mb 48f 44f
10:48pm 6 7 mph 1015.5mb 48f 45f
10:42pm 6 7 mph 1015.5mb 48f 45f
10:36pm 7 8 mph 1015.4mb 48f 44f
10:30pm 8 10 mph 1015.3mb 48f 45f
10:24pm 9 10 mph 1015.3mb 48f 46f
10:18pm 8 9 mph 1015.2mb 48f 45f
10:12pm 7 8 mph 1015.2mb 47f 45f
10:06pm 6 9 mph 1015.2mb 47f 45f
10:00pm 9 10 mph 1015.3mb 47f 46f
9:54pm 6 9 mph 1015.4mb 47f 47f
9:48pm 6 9 mph 1015.4mb 46f 46f
9:42pm 7 8 mph 1015.5mb 46f 46f
9:36pm 7 8 mph 1015.4mb 46f 46f
9:30pm 7 8 mph 1015.4mb 46f 46f
9:24pm 7 9 mph 1015.5mb 46f 47f
9:18pm 8 9 mph 1015.5mb 46f 47f
9:12pm 9 10 mph 1015.5mb 46f 46f
9:06pm 10 13 mph 1015.5mb 46f 47f
9:00pm 10 13 mph 1015.5mb 46f 47f
8:54pm 9 11 mph 1015.6mb 46f 46f
8:48pm 10 11 mph 1015.5mb 46f 47f
8:42pm 8 9 mph 1015.5mb 46f 46f
8:36pm 6 8 mph 1015.6mb 46f 46f
8:30pm 5 6 mph 1015.6mb 46f 47f
8:24pm 6 7 mph 1015.6mb 47f 47f
8:18pm 7 9 mph 1015.5mb 47f 47f
8:12pm 7 10 mph 1015.4mb 47f 47f
8:06pm 7 9 mph 1015.4mb 47f 48f
8:00pm 8 11 mph 1015.3mb 47f 48f
7:54pm 8 11 mph 1015.2mb 47f 49f
7:48pm 9 10 mph 1015.3mb 47f 48f
7:42pm 9 10 mph 1015.2mb 47f 48f
7:36pm 9 10 mph 1015.2mb 47f 48f
7:30pm 8 13 mph 1015.1mb 47f 49f
7:24pm 10 11 mph 1015.1mb 47f 49f
7:18pm 9 11 mph 1015mb 47f 48f
7:12pm 7 9 mph 1014.9mb 47f 48f
7:06pm 7 7 mph 1014.8mb 47f 49f
7:00pm 5 7 mph 1014.8mb 47f 48f
6:54pm 6 8 mph 1014.8mb 47f 49f
6:48pm 6 7 mph 1014.8mb 47f 49f
6:42pm 7 9 mph 1014.8mb 47f 50f
6:36pm 8 11 mph 1014.8mb 47f 50f
6:30pm 10 14 mph 1014.7mb 47f 50f
6:24pm 13 14 mph 1014.7mb 47f 51f
6:18pm 11 16 mph 1014.6mb 47f 51f
6:12pm 13 15 mph 1014.6mb 48f 52f
6:06pm 10 14 mph 1014.5mb 48f 52f
6:00pm 14 17 mph 1014.6mb 48f 52f
5:54pm 13 17 mph 1014.5mb 48f 51f
5:48pm 10 13 mph 1014.1mb 48f 51f
5:42pm 11 15 mph 1014mb 48f 51f
5:36pm 13 15 mph 1013.9mb 48f 52f
5:30pm 15 18 mph 1014mb 48f 52f
5:24pm 14 17 mph 1014.1mb 48f 52f
5:18pm 15 21 mph 1014.1mb 48f 53f
5:12pm 11 15 mph 1014.1mb 48f 52f
5:06pm 9 13 mph 1014.1mb 48f 53f
5:00pm 9 10 mph 1014.1mb 48f 53f
4:54pm 9 11 mph 1014.1mb 48f 53f
4:48pm 10 14 mph 1014.1mb 48f 53f
4:42pm 8 9 mph 1014mb 48f 52f
4:36pm 8 13 mph 1013.9mb 48f 52f
4:30pm 10 16 mph 1013.9mb 48f 53f
4:24pm 15 18 mph 1013.8mb 48f 54f
4:18pm 15 18 mph 1013.7mb 48f 55f
4:12pm 11 14 mph 1013.6mb 48f 54f
4:06pm 13 16 mph 1013.6mb 48f 55f
4:00pm 14 17 mph 1013.5mb 48f 55f
3:54pm 11 18 mph 1013.5mb 48f 55f
3:48pm 15 21 mph 1013.6mb 48f 57f
3:42pm 11 15 mph 1013.7mb 48f 56f
3:36pm 13 15 mph 1013.5mb 48f 56f
3:30pm 14 18 mph 1013.5mb 48f 57f
3:24pm 16 20 mph 1013.7mb 49f 57f
3:18pm 14 21 mph 1013.7mb 49f 57f
3:12pm 14 17 mph 1013.8mb 49f 57f
3:06pm 14 23 mph 1013.8mb 49f 57f
3:00pm 17 22 mph 1013.8mb 49f 57f
2:54pm 14 21 mph 1013.7mb 49f 57f
2:48pm 16 25 mph 1013.8mb 49f 57f
2:42pm 17 23 mph 1013.7mb 49f 57f
2:36pm 13 21 mph 1013.7mb 49f 57f
2:30pm 15 21 mph 1013.8mb 49f 56f
2:24pm 14 23 mph 1013.7mb 49f 56f
2:18pm 20 26 mph 1013.8mb 49f 57f
2:12pm 18 24 mph 1013.9mb 49f 57f
2:06pm 11 15 mph 1014mb 49f 55f
2:00pm 11 14 mph 1014mb 49f 53f
1:54pm 11 13 mph 1014mb 49f 51f
1:48pm 8 10 mph 1014mb 49f 50f
1:42pm 7 10 mph 1014mb 49f 50f
1:36pm 9 13 mph 1014.1mb 49f 50f
1:30pm 10 13 mph 1014.3mb 49f 50f
1:24pm 10 13 mph 1014.4mb 49f 50f
1:18pm 10 14 mph 1014.5mb 49f 49f
1:12pm 11 14 mph 1014.6mb 49f 49f
1:06pm 10 13 mph 1014.8mb 49f 49f
1:00pm 10 13 mph 1015mb 49f 49f
12:54pm 9 11 mph 1015mb 49f 49f
12:48pm 11 14 mph 1015.2mb 49f 49f
12:42pm 11 13 mph 1015.3mb 49f 49f
12:36pm 10 13 mph 1015.6mb 48f 49f
12:30pm 10 18 mph 1015.7mb 48f 49f
12:24pm 15 21 mph 1015.6mb 48f 50f
12:18pm 16 17 mph 1015.8mb 48f 50f
12:12pm 15 20 mph 1015.9mb 48f 50f
12:06pm 13 21 mph 1016mb 48f 49f
12:00pm 18 22 mph 1016mb 48f 49f
11:54am 10 15 mph 1016.1mb 48f 48f
11:48am 13 16 mph 1016.6mb 48f 48f
11:42am 14 17 mph 1016.7mb 48f 47f
11:36am 11 15 mph 1016.8mb 48f 47f
11:30am 14 18 mph 1016.7mb 48f 47f
11:24am 15 20 mph 1016.8mb 48f 47f
11:18am 13 15 mph 1017mb 48f 46f
11:12am 8 10 mph 1017.2mb 48f 47f
11:06am 7 9 mph 1017.3mb 48f 47f
11:00am 7 9 mph 1017.3mb 48f 46f
10:54am 6 8 mph 1017.4mb 48f 46f
10:48am 3 7 mph 1017.6mb 48f 45f
10:42am 5 7 mph 1017.8mb 48f 45f
10:36am 5 6 mph 1018mb 48f 44f
10:30am 3 6 mph 1018.2mb 48f 44f
10:24am 5 8 mph 1018.2mb 48f 43f
10:18am 5 8 mph 1018.1mb 48f 42f
10:12am 7 9 mph 1018.2mb 48f 42f
10:06am 3 7 mph 1018.2mb 48f 42f
10:00am 3 6 mph 1018.1mb 48f 41f
9:54am 5 9 mph 1018.2mb 48f 41f
9:48am 6 10 mph 1018.2mb 48f 40f
9:42am 10 13 mph 1018.5mb 48f 40f
9:36am 7 11 mph 1018.6mb 48f 40f
9:30am 7 11 mph 1018.6mb 48f 40f
9:24am 8 11 mph 1018.6mb 47f 40f
9:18am 8 10 mph 1018.6mb 47f 40f
9:12am 7 10 mph 1018.6mb 47f 40f
9:06am 8 11 mph 1018.7mb 46f 40f
9:00am 6 13 mph 1018.7mb 46f 40f
8:54am 6 8 mph 1018.7mb 45f 40f
8:48am 6 7 mph 1018.8mb 45f 39f
8:42am 5 6 mph 1018.8mb 45f 39f
8:36am 3 5 mph 1018.7mb 45f 38f
8:30am 1 5 mph 1018.7mb 45f 38f
8:24am 3 6 mph 1018.8mb 45f 37f
8:18am 3 6 mph 1018.8mb 45f 37f
8:12am 3 5 mph 1018.8mb 45f 36f
8:06am  -  1 mph 1018.8mb 45f 35f
8:00am  -  1 mph 1018.8mb 45f 35f
7:54am  -  2 mph 1018.8mb 45f 35f
7:48am 1 3 mph 1019mb 45f 35f
7:42am  -  2 mph 1018.9mb 45f 33f
7:36am 2 2 mph 1018.9mb 46f 32f
7:30am 2 2 mph 1019mb 46f 31f
7:24am 1 2 mph 1018.9mb 46f 31f
7:18am 1 3 mph 1019mb 46f 30f
7:12am 3 5 mph 1019mb 46f 29f
7:06am 3 3 mph 1018.9mb 46f 29f
7:00am 2 2 mph 1018.8mb 46f 30f
6:54am 2 3 mph 1018.7mb 46f 29f
6:48am 3 3 mph 1018.6mb 46f 29f
6:42am 2 2 mph 1018.6mb 46f 29f
6:36am 2 3 mph 1018.6mb 46f 29f
6:30am 1 2 mph 1018.6mb 46f 30f
6:24am 1 2 mph 1018.6mb 46f 31f
6:18am 1 2 mph 1018.5mb 46f 32f
6:12am 1 2 mph 1018.5mb 47f 31f
6:06am  -  1 mph 1018.5mb 47f 30f
6:00am 1 2 mph 1018.4mb 47f 30f
5:54am 1 2 mph 1018.4mb 47f 30f
5:48am  -  2 mph 1018.3mb 47f 30f
5:42am 1 2 mph 1018.3mb 47f 29f
5:36am 1 2 mph 1018.3mb 47f 30f
5:30am 1 1 mph 1018.2mb 47f 30f
5:24am 1 2 mph 1018.2mb 47f 30f
5:18am 2 3 mph 1018.2mb 47f 30f
5:12am 2 2 mph 1018.2mb 47f 30f
5:06am 2 2 mph 1018.3mb 47f 30f
5:00am 1 2 mph 1018.2mb 47f 31f
4:54am 1 2 mph 1018.2mb 47f 31f
4:48am 1 2 mph 1018.2mb 47f 30f
4:42am 1 2 mph 1018.2mb 47f 30f
4:36am 1 2 mph 1018.2mb 47f 31f
4:30am 1 1 mph 1018.2mb 47f 31f
4:24am 1 2 mph 1018.2mb 47f 32f
4:18am 1 1 mph 1018.2mb 48f 32f
4:12am  -  2 mph 1018.2mb 48f 31f
4:06am 1 2 mph 1018.2mb 48f 31f
4:00am 1 3 mph 1018.1mb 48f 31f
3:54am 2 3 mph 1018.1mb 48f 33f
3:48am 2 3 mph 1018.1mb 48f 33f
3:42am 3 3 mph 1018.2mb 48f 31f
3:36am 2 3 mph 1018mb 48f 32f
3:30am 2 2 mph 1017.9mb 48f 32f
3:24am 1 2 mph 1017.8mb 48f 33f
3:18am 2 2 mph 1017.9mb 48f 33f
3:12am 2 2 mph 1017.9mb 48f 33f
3:06am 2 3 mph 1018mb 48f 34f
3:00am 1 1 mph 1018.1mb 48f 35f
2:54am  -  1 mph 1018.2mb 48f 35f
2:48am 1 2 mph 1018.2mb 49f 34f
2:42am 2 2 mph 1018.2mb 49f 35f
2:36am 1 2 mph 1018.4mb 49f 35f
2:30am 1 2 mph 1018.4mb 49f 35f
2:24am 2 3 mph 1018.4mb 49f 35f
2:18am 2 3 mph 1018.5mb 49f 34f
2:12am 2 5 mph 1018.5mb 49f 34f
2:06am 2 5 mph 1018.7mb 49f 34f
2:00am 3 5 mph 1018.6mb 49f 34f
1:54am 2 2 mph 1018.6mb 49f 34f
1:48am 2 5 mph 1018.6mb 49f 34f
1:42am 3 6 mph 1018.5mb 49f 34f
1:36am 3 6 mph 1018.4mb 49f 34f
1:30am 5 7 mph 1018.2mb 49f 34f
1:24am 5 7 mph 1018.2mb 49f 33f
1:18am 6 7 mph 1018mb 49f 33f
1:12am 5 6 mph 1017.9mb 49f 33f
1:06am 2 6 mph 1017.8mb 49f 33f
1:00am 3 5 mph 1017.7mb 49f 33f
12:54am 3 5 mph 1017.8mb 49f 33f
12:48am 3 6 mph 1017.6mb 49f 33f
12:42am 3 6 mph 1017.6mb 49f 32f
12:36am 3 6 mph 1017.6mb 49f 32f
12:30am 3 5 mph 1017.5mb 49f 32f
12:24am 2 3 mph 1017.5mb 49f 32f
12:18am 1 2 mph 1017.6mb 49f 32f
12:12am 1 2 mph 1017.7mb 49f 32f
12:06am 1 2 mph 1017.6mb 49f 32f
12:00am 1 3 mph 1017.4mb 49f 33f
Mon 11/20 11:54pm 2 6 mph 1017.4mb 49f 33f
11:48pm 3 6 mph 1017.4mb 49f 33f
11:42pm 3 7 mph 1017.3mb 49f 34f
11:36pm 2 5 mph 1017.4mb 49f 33f
11:30pm 3 5 mph 1017.3mb 49f 32f
11:24pm 2 5 mph 1017.3mb 49f 32f
11:18pm 2 3 mph 1017.3mb 49f 32f
11:12pm 2 5 mph 1017.3mb 49f 32f
11:06pm 3 5 mph 1017.3mb 49f 31f
11:00pm 3 5 mph 1017.1mb 49f 31f
10:54pm 3 7 mph 1017mb 49f 33f
10:48pm 5 6 mph 1016.9mb 49f 33f
10:42pm 5 6 mph 1016.9mb 49f 33f
10:36pm 5 7 mph 1016.8mb 49f 33f
10:30pm 5 8 mph 1016.7mb 49f 33f
10:24pm 6 9 mph 1016.5mb 49f 33f
10:18pm 6 10 mph 1016.5mb 49f 33f
10:12pm 6 7 mph 1016.4mb 49f 32f
10:06pm 5 6 mph 1016.4mb 48f 33f
10:00pm 2 2 mph 1016.3mb 48f 33f
9:54pm  -  3 mph 1016.3mb 47f 34f
9:48pm 3 5 mph 1016.3mb 47f 34f
9:42pm 2 5 mph 1016.3mb 47f 34f
9:36pm 2 5 mph 1016.1mb 47f 34f
9:30pm 3 6 mph 1015.9mb 47f 34f
9:24pm 3 6 mph 1015.8mb 46f 34f
9:18pm 2 6 mph 1015.6mb 46f 34f
9:12pm 3 9 mph 1015.7mb 46f 34f
9:06pm 6 10 mph 1015.6mb 46f 35f
9:00pm 7 13 mph 1015.5mb 45f 35f
8:54pm 8 13 mph 1015.6mb 45f 35f
8:48pm 10 16 mph 1015.4mb 45f 35f
8:42pm 10 14 mph 1015.2mb 45f 35f
8:36pm 11 15 mph 1015.2mb 45f 35f
8:30pm 13 17 mph 1015.1mb 45f 36f
8:24pm 10 16 mph 1015.1mb 45f 35f
8:18pm 10 17 mph 1015.1mb 45f 36f
8:12pm 9 15 mph 1015.1mb 45f 36f
8:06pm 5 8 mph 1015.1mb 45f 35f
8:00pm 5 6 mph 1015.1mb 45f 35f
7:54pm 3 5 mph 1015mb 45f 36f
7:48pm 2 5 mph 1014.9mb 46f 35f
7:42pm 2 5 mph 1014.9mb 46f 36f
7:36pm 3 3 mph 1014.7mb 46f 36f
7:30pm 2 3 mph 1014.6mb 46f 36f
7:24pm 2 5 mph 1014.4mb 46f 36f
7:18pm 2 3 mph 1014.3mb 46f 36f
7:12pm 1 5 mph 1014.2mb 46f 36f
7:06pm 5 6 mph 1014.1mb 46f 36f
7:00pm 5 6 mph 1014mb 46f 36f
6:54pm 3 5 mph 1013.8mb 46f 37f
6:48pm 2 3 mph 1013.7mb 46f 37f
6:42pm 2 2 mph 1013.6mb 46f 37f
6:36pm 2 5 mph 1013.5mb 46f 37f
6:30pm 3 6 mph 1013.4mb 46f 37f
6:24pm 2 5 mph 1013.3mb 46f 37f
6:18pm 3 6 mph 1013.1mb 47f 37f
6:12pm 5 9 mph 1013.1mb 47f 37f
6:06pm 6 9 mph 1013mb 47f 37f
6:00pm 6 9 mph 1012.9mb 47f 37f
5:54pm 5 8 mph 1012.7mb 47f 37f
5:48pm 5 9 mph 1012.6mb 47f 37f
5:42pm 7 9 mph 1012.6mb 47f 37f
5:36pm 6 10 mph 1012.6mb 47f 37f
5:30pm 8 11 mph 1012.6mb 47f 37f
5:24pm 7 10 mph 1012.5mb 47f 37f
5:18pm 8 14 mph 1012.3mb 47f 37f
5:12pm 8 11 mph 1012.2mb 47f 37f
5:06pm 8 14 mph 1012.1mb 47f 38f
5:00pm 9 15 mph 1012.2mb 47f 38f
4:54pm 13 18 mph 1012.1mb 47f 38f
4:48pm 10 16 mph 1012mb 47f 38f
4:42pm 8 20 mph 1011.9mb 47f 38f
4:36pm 7 14 mph 1011.8mb 47f 38f
4:30pm 8 16 mph 1011.7mb 47f 38f
4:24pm 14 20 mph 1011.6mb 48f 38f
4:18pm 11 17 mph 1011.6mb 48f 38f
4:12pm 9 15 mph 1011.5mb 48f 38f
4:06pm 9 17 mph 1011.4mb 48f 38f
4:00pm 14 21 mph 1011.4mb 48f 39f
3:54pm 14 26 mph 1011.2mb 48f 39f
3:48pm 10 21 mph 1011.1mb 48f 39f
3:42pm 11 18 mph 1011mb 48f 39f
3:36pm 8 16 mph 1011.1mb 48f 38f
3:30pm 8 17 mph 1011.1mb 48f 38f
3:24pm 13 18 mph 1011mb 48f 38f
3:18pm 10 18 mph 1011mb 48f 38f
3:12pm 13 24 mph 1010.9mb 48f 38f
3:06pm 17 24 mph 1010.9mb 48f 38f
3:00pm 11 18 mph 1010.8mb 48f 39f
2:54pm 10 20 mph 1010.7mb 49f 38f
2:48pm 16 23 mph 1010.5mb 49f 38f
2:42pm 13 20 mph 1010.4mb 49f 39f
2:36pm 9 21 mph 1010.4mb 49f 39f
2:30pm 14 20 mph 1010.2mb 49f 39f
2:24pm 14 25 mph 1010.1mb 49f 39f
2:18pm 15 28 mph 1010.1mb 49f 38f
2:12pm 11 20 mph 1010.2mb 49f 39f
2:06pm 13 20 mph 1010.1mb 49f 39f
2:00pm 14 26 mph 1010mb 49f 38f
1:54pm 22 29 mph 1009.8mb 49f 38f
1:48pm 15 26 mph 1009.9mb 49f 38f
1:42pm 20 29 mph 1009.8mb 49f 38f
1:36pm 14 21 mph 1009.9mb 49f 39f
1:30pm 8 16 mph 1010mb 49f 39f
1:24pm 7 17 mph 1009.8mb 49f 39f
1:18pm 13 16 mph 1009.9mb 49f 38f
1:12pm 13 21 mph 1009.7mb 49f 38f
1:06pm 14 18 mph 1009.8mb 49f 37f
1:00pm 17 22 mph 1009.9mb 49f 37f
12:54pm 14 20 mph 1010mb 49f 38f
12:48pm 11 16 mph 1009.9mb 49f 38f
12:42pm 15 21 mph 1009.8mb 49f 37f
12:36pm 16 25 mph 1009.9mb 49f 37f
12:30pm 18 24 mph 1009.9mb 49f 37f
12:24pm 13 28 mph 1009.9mb 49f 37f
12:18pm 15 26 mph 1009.8mb 49f 37f
12:12pm 17 24 mph 1009.8mb 49f 37f
12:06pm 15 23 mph 1009.9mb 49f 37f
12:00pm 14 24 mph 1010.1mb 49f 36f
11:54am 18 34 mph 1009.9mb 49f 36f
11:48am 13 28 mph 1009.9mb 49f 36f
11:42am 16 24 mph 1010.1mb 49f 36f
11:36am 15 24 mph 1009.9mb 49f 36f
11:30am 21 29 mph 1009.8mb 49f 36f
11:24am 22 34 mph 1009.7mb 49f 36f
11:18am 20 33 mph 1009.7mb 49f 36f
11:12am 21 36 mph 1009.7mb 49f 36f
11:06am 23 37 mph 1009.5mb 49f 35f
11:00am 22 36 mph 1009.6mb 49f 35f
10:54am 22 37 mph 1009.5mb 49f 35f
10:48am 29 40 mph 1009.6mb 49f 35f
10:42am 22 31 mph 1009.6mb 49f 36f
10:36am 15 23 mph 1009.6mb 49f 36f
10:30am 13 21 mph 1009.6mb 49f 36f
10:24am 16 26 mph 1009.7mb 49f 35f
10:18am 17 26 mph 1009.8mb 49f 35f
10:12am 16 25 mph 1009.8mb 49f 36f
10:06am 10 24 mph 1009.7mb 49f 36f
10:00am 14 23 mph 1009.6mb 49f 36f
9:54am 11 25 mph 1009.7mb 49f 36f
9:48am 11 18 mph 1009.5mb 49f 36f
9:42am 16 24 mph 1009.6mb 49f 36f
9:36am 10 25 mph 1009.4mb 49f 35f
9:30am 11 17 mph 1009.3mb 49f 36f
9:24am 14 21 mph 1009.2mb 48f 35f
9:18am 11 18 mph 1009.2mb 48f 36f
9:12am 11 17 mph 1009.1mb 48f 36f
9:06am 11 20 mph 1009mb 48f 36f
9:00am 8 15 mph 1009mb 49f 36f
8:54am 7 17 mph 1009mb 49f 36f
8:48am 8 16 mph 1009mb 48f 35f
8:42am 9 14 mph 1009mb 48f 35f
8:36am 11 17 mph 1008.9mb 47f 35f
8:30am 9 14 mph 1008.8mb 46f 34f
8:24am 8 10 mph 1008.9mb 46f 34f
8:18am 7 13 mph 1008.8mb 45f 34f
8:12am 7 9 mph 1008.8mb 45f 33f
8:06am 7 9 mph 1008.8mb 45f 33f
8:00am 5 8 mph 1008.8mb 45f 33f
7:54am 5 8 mph 1008.8mb 45f 33f
7:48am 5 8 mph 1008.7mb 45f 33f
7:42am 6 9 mph 1008.7mb 45f 33f
7:36am 6 8 mph 1008.6mb 45f 32f
7:30am 6 8 mph 1008.6mb 45f 33f
7:24am 5 8 mph 1008.5mb 45f 33f
7:18am 5 7 mph 1008.5mb 45f 33f
7:12am 6 7 mph 1008.5mb 45f 32f
7:06am 5 7 mph 1008.3mb 45f 32f
7:00am 5 7 mph 1008.1mb 45f 32f
6:54am 6 10 mph 1008mb 46f 33f
6:48am 5 10 mph 1007.9mb 46f 32f
6:42am 7 10 mph 1007.7mb 46f 33f
6:36am 7 11 mph 1007.7mb 46f 33f
6:30am 7 11 mph 1007.6mb 46f 33f
6:24am 7 9 mph 1007.6mb 46f 33f
6:18am 6 9 mph 1007.6mb 46f 33f
6:12am 7 9 mph 1007.5mb 46f 33f
6:06am 5 6 mph 1007.4mb 46f 33f
6:00am 5 8 mph 1007.3mb 46f 33f
5:54am 5 7 mph 1007.1mb 46f 33f
5:48am 6 8 mph 1007mb 47f 33f
5:42am 5 7 mph 1006.9mb 47f 33f
5:36am 5 9 mph 1006.7mb 47f 33f
5:30am 5 7 mph 1006.6mb 47f 33f
5:24am 6 7 mph 1006.5mb 47f 33f
5:18am 6 8 mph 1006.3mb 47f 33f
5:12am 5 8 mph 1006.3mb 47f 32f
5:06am 5 6 mph 1006.2mb 47f 32f
5:00am 5 6 mph 1006.2mb 47f 32f
4:54am 2 5 mph 1006.2mb 47f 31f
4:48am 2 3 mph 1006.1mb 47f 31f
4:42am 2 3 mph 1006mb 47f 32f
4:36am 2 3 mph 1005.9mb 47f 32f
4:30am 1 3 mph 1005.7mb 47f 32f
4:24am 2 5 mph 1005.7mb 47f 32f
4:18am 2 5 mph 1005.6mb 47f 32f
4:12am 2 6 mph 1005.5mb 47f 32f
4:06am 3 7 mph 1005.5mb 48f 32f
4:00am 2 5 mph 1005.4mb 48f 33f
3:54am 3 6 mph 1005.3mb 48f 33f
3:48am 3 7 mph 1005.2mb 48f 33f
3:42am 3 8 mph 1005.1mb 48f 33f
3:36am 5 9 mph 1005mb 48f 33f
3:30am 6 7 mph 1004.9mb 48f 33f
3:24am 5 9 mph 1004.8mb 48f 34f
3:18am 7 8 mph 1004.6mb 48f 34f
3:12am 6 10 mph 1004.5mb 48f 34f
3:06am 7 10 mph 1004.4mb 48f 34f
3:00am 6 8 mph 1004.3mb 48f 34f
2:54am 8 14 mph 1004.2mb 49f 35f
2:48am 7 13 mph 1004.2mb 49f 35f
2:42am 8 11 mph 1004.1mb 49f 35f
2:36am 7 13 mph 1004mb 49f 35f
2:30am 8 17 mph 1004mb 49f 36f
2:24am 11 17 mph 1003.8mb 49f 36f
2:18am 8 17 mph 1003.8mb 49f 36f
2:12am 7 13 mph 1003.6mb 49f 35f
2:06am 9 15 mph 1003.5mb 49f 36f
2:00am 9 14 mph 1003.3mb 49f 36f
1:54am 9 15 mph 1003.3mb 49f 36f
1:48am 8 17 mph 1003.2mb 49f 36f
1:42am 11 15 mph 1003mb 49f 36f
1:36am 10 16 mph 1002.8mb 49f 36f
1:30am 7 14 mph 1002.6mb 49f 36f
1:24am 8 14 mph 1002.5mb 49f 36f
1:18am 13 21 mph 1002.5mb 49f 36f
1:12am 11 15 mph 1002.5mb 49f 37f
1:06am 11 18 mph 1002.5mb 49f 37f
1:00am 14 22 mph 1002.3mb 49f 37f
12:54am 10 15 mph 1002.3mb 49f 36f
12:48am 8 16 mph 1002.2mb 49f -
12:42am 7 11 mph 1002.2mb 49f -
12:36am 9 18 mph 1002.2mb 49f -
12:30am 15 22 mph 1001.9mb 49f 37f
12:24am 9 15 mph 1001.9mb 49f 36f
12:18am 11 20 mph 1001.8mb 49f 36f
12:12am 13 20 mph 1001.7mb 49f 36f
12:06am 10 20 mph 1001.7mb 49f 36f
12:00am 11 17 mph 1001.6mb 49f 36f
Sun 11/19 11:54pm 11 21 mph 1001.5mb 49f 36f
11:48pm 14 20 mph 1001.3mb 49f 36f
11:42pm 8 17 mph 1001.4mb 49f 36f
11:36pm 13 20 mph 1001.4mb 49f 36f
11:30pm 11 24 mph 1001.4mb 49f 36f
11:24pm 13 18 mph 1001.3mb 49f 36f
11:18pm 11 20 mph 1001.3mb 49f 36f
11:12pm 10 17 mph 1001.4mb 49f 36f
11:06pm 11 16 mph 1001.3mb 49f 36f
11:00pm 13 20 mph 1001.2mb 49f 36f
10:54pm 11 18 mph 1001.4mb 49f 36f
10:48pm 8 21 mph 1001.3mb 49f 36f
10:42pm 11 22 mph 1001.2mb 49f 36f
10:36pm 11 20 mph 1001.3mb 49f 37f
10:30pm 11 18 mph 1001.3mb 49f 37f
10:24pm 11 16 mph 1001.3mb 49f 37f
10:18pm 11 16 mph 1001.3mb 49f 37f
10:12pm 8 13 mph 1001.3mb 49f 37f
10:06pm 9 15 mph 1001.3mb 49f 37f
10:00pm 8 14 mph 1001.2mb 49f 37f
9:54pm 9 15 mph 1001.2mb 49f 37f
9:48pm 8 14 mph 1001mb 49f 37f
9:42pm 8 20 mph 1001.1mb 49f 37f
9:36pm 10 17 mph 1001mb 49f 37f
9:30pm 9 21 mph 1001.1mb 49f 37f
9:24pm 13 22 mph 1000.9mb 48f 37f
9:18pm 9 18 mph 1000.9mb 48f 37f
9:12pm 9 18 mph 1000.8mb 48f 37f
9:06pm 14 21 mph 1000.6mb 48f 37f
9:00pm 9 20 mph 1000.6mb 48f 37f
8:54pm 10 22 mph 1000.4mb 48f 37f
8:48pm 8 18 mph 1000.4mb 48f 37f
8:42pm 11 25 mph 1000mb 48f 37f
8:36pm 17 23 mph 999.8mb 48f 37f
8:30pm 18 28 mph 999.7mb 48f 37f
8:24pm 13 24 mph 999.5mb 48f 37f
8:18pm 14 21 mph 999.3mb 48f 37f
8:12pm 10 15 mph 999.4mb 48f 37f
8:06pm 16 23 mph 999.4mb 48f 38f
8:00pm 15 21 mph 999.3mb 48f 38f
7:54pm 14 21 mph 999.2mb 48f 38f
7:48pm 14 24 mph 998.9mb 48f 38f
7:42pm 14 22 mph 998.8mb 48f 38f
7:36pm 11 22 mph 998.7mb 48f 38f
7:30pm 14 25 mph 998.4mb 48f 38f
7:24pm 16 22 mph 997.9mb 48f 38f
7:18pm 16 23 mph 997.7mb 48f 38f
7:12pm 16 23 mph 997.6mb 48f 38f
7:06pm 14 23 mph 997.5mb 48f 38f
7:00pm 16 25 mph 997.3mb 48f 38f
6:54pm 14 22 mph 997.2mb 48f 38f
6:48pm 18 29 mph 997.2mb 48f 38f
6:42pm 15 21 mph 997.1mb 49f 38f
6:36pm 14 24 mph 997mb 49f 38f
6:30pm 11 21 mph 996.9mb 49f 38f
6:24pm 13 23 mph 996.8mb 49f 38f
6:18pm 10 18 mph 996.7mb 49f 38f
6:12pm 13 17 mph 996.6mb 49f 39f
6:06pm 13 18 mph 996.4mb 49f 39f
6:00pm 11 20 mph 996.2mb 49f 39f
5:54pm 18 28 mph 995.9mb 49f 39f
5:48pm 17 31 mph 995.8mb 49f 39f
5:42pm 20 29 mph 995.5mb 49f 39f
5:36pm 22 37 mph 995.4mb 49f 40f
5:30pm 20 31 mph 995.1mb 49f 40f
5:24pm 14 20 mph 994.9mb 49f 40f
5:18pm 14 26 mph 994.6mb 49f 40f
5:12pm 15 29 mph 994.4mb 49f 40f
5:06pm 18 26 mph 994.2mb 49f 41f
5:00pm 9 17 mph 994.1mb 49f 41f
4:54pm 11 18 mph 994.1mb 49f 41f
4:48pm 13 22 mph 993.9mb 49f 41f
4:42pm 13 22 mph 993.7mb 49f 42f
4:36pm 14 23 mph 993.5mb 49f 42f
4:30pm 11 18 mph 993.3mb 49f 42f
4:24pm 13 21 mph 993mb 49f 42f
4:18pm 14 23 mph 992.9mb 49f 42f
4:12pm 14 25 mph 992.6mb 49f 43f
4:06pm 13 21 mph 992.1mb 49f 43f
4:00pm 13 21 mph 991.9mb 49f 43f
3:54pm 11 24 mph 991.7mb 49f 43f
3:48pm 11 20 mph 991.5mb 48f 43f
3:42pm 14 22 mph 991.3mb 48f 43f
3:36pm 9 28 mph 991.2mb 48f 43f
3:30pm 14 25 mph 991mb 48f 43f
3:24pm 11 17 mph 990.8mb 48f 43f
3:18pm 13 21 mph 990.4mb 48f 43f
3:12pm 15 23 mph 989.9mb 48f 44f
3:06pm 17 26 mph 989.8mb 49f 44f
3:00pm 18 31 mph 989.5mb 49f 45f
2:54pm 14 28 mph 989.1mb 49f 46f
2:48pm 21 28 mph - 49f 46f
2:42pm 16 28 mph - 49f 46f
2:36pm 16 28 mph - 49f 46f
2:30pm 20 29 mph - 49f 46f
2:24pm 15 31 mph - 49f 46f
2:18pm 16 24 mph - 49f 47f
2:12pm 17 26 mph - 49f 47f
2:06pm 14 26 mph - 49f 47f
2:00pm 11 23 mph - 49f 48f
1:54pm 11 21 mph - 49f 49f
1:48pm 18 26 mph - 49f 49f
1:42pm 14 25 mph - 49f 49f
1:36pm 16 29 mph - 49f 49f
1:30pm 18 30 mph - 49f 49f
1:24pm 17 25 mph - 49f 50f
1:18pm 10 26 mph - 49f 50f
1:12pm 11 26 mph - 49f 51f
1:06pm 14 24 mph - 49f 51f
1:00pm 18 31 mph - 49f 51f
12:54pm 20 34 mph - 49f 51f
12:48pm 20 32 mph - 49f 53f
12:42pm 13 24 mph - 49f 54f
12:36pm 15 28 mph - 49f 55f
12:30pm 14 25 mph - 49f 56f
12:24pm 16 24 mph - 48f 57f
12:18pm 13 22 mph - 48f 58f
12:12pm 10 16 mph - 48f 57f
12:06pm 14 20 mph - 48f 57f
12:00pm 17 20 mph - 48f 57f
11:54am 14 15 mph - 48f 56f
11:48am 13 14 mph - 48f 55f
11:42am 13 14 mph - 48f 55f
11:36am 14 17 mph - 48f 54f
11:30am 16 20 mph - 48f 54f
11:24am 15 21 mph - 48f 54f
11:18am 16 18 mph - 48f 55f
11:12am 14 16 mph - 48f 55f
11:06am 11 15 mph - 48f 55f
11:00am 14 17 mph - 48f 56f
10:54am 11 17 mph - 48f 56f
10:48am 15 18 mph - 48f 56f
10:42am 16 20 mph - 48f 56f
10:36am 13 16 mph - 48f 55f
10:30am 13 16 mph - 48f 55f
10:24am 14 18 mph - 48f 54f
10:18am 17 21 mph - 48f 54f
10:12am 17 22 mph - 48f 53f
10:06am 20 21 mph - 48f 54f
10:00am 17 22 mph - 48f 53f
9:54am 17 22 mph - 48f 53f
9:48am 17 21 mph - 48f 53f
8:54am 13 14 mph - 48f 52f
8:48am 11 13 mph - 48f 53f